Temperature
17 17 17 17 17 17 17 17 17 17 17 17 17 17 17 17 17 17 16 16 16 16 16 16 16 16 16 16 16 16 17 17 17 17 17 17 17 17 16 16 16 16 15
17 17 17 17 17 17 17 17 17 17 17 17 17 17 17 16 16 17 16 16 16 16 16 16 16 16 16 16 16 16 16 16 16 17 17 17 17 16 16 16 16 16 15
17 17 17 17 17 17 17 17 17 17 17 17 17 17 17 16 16 16 16 16 16 16 16 16 16 16 16 16 16 16 16 16 16 16 16 16 16 16 16 16 16 15 15
17 17 17 17 17 17 17 17 17 17 17 17 17 17 17 17 16 16 16 16 16 16 16 16 16 15 15 15 15 15 15 15 15 15 15 16 16 16 16 15 15 15 15
17 17 17 17 17 17 17 17 17 17 17 17 17 17 17 16 16 16 16 16 16 16 16 16 15 15 15 15 15 15 15 15 15 15 15 15 15 15 15 15 15 15 15
17 17 17 17 17 17 17 17 17 17 17 16 16 16 16 16 16 16 16 16 16 16 16 15 15 15 15 15 15 15 15 15 15 15 15 15 15 15 15 15 15 15 15
17 17 17 17 17 17 17 16 16 16 16 16 16 16 16 16 16 16 16 16 16 15 15 15 15 15 15 15 15 15 15 15 14 14 14 14 14 14 14 14 14 14 14
17 17 17 16 16 16 16 16 16 16 16 16 16 16 16 16 16 16 16 16 15 15 15 15 15 15 15 14 14 14 14 14 14 14 14 14 14 14 14 14 14 14 14
17 16 16 16 16 16 16 16 16 16 16 16 16 15 15 15 15 15 15 15 15 15 14 14 14 14 14 14 14 14 14 14 14 13 13 13 14 13 13 13 13 13 13
16 16 16 16 16 16 16 16 16 15 15 15 15 15 15 15 15 15 14 14 14 14 14 14 14 13 13 13 13 13 13 13 13 13 13 13 13 13 13 12 12 12 12
16 16 16 16 16 15 15 15 15 15 15 15 14 14 14 14 14 14 14 14 13 13 13 13 13 13 13 13 13 12 12 12 12 12 12 12 12 12 12 12 12 11 11
15 15 15 15 15 15 15 15 15 15 14 14 14 13 13 13 13 13 13 13 13 13 12 12 12 12 12 12 12 12 12 12 12 12 12 12 12 12 11 11 11 11 11
15 14 14 14 14 14 14 14 14 14 14 14 13 13 12 12 12 12 12 12 12 12 12 12 12 12 12 11 11 11 11 11 11 11 11 11 11 11 11 11 10 10 10
14 14 14 14 14 14 14 13 13 13 13 13 12 12 12 11 11 11 11 11 11 11 11 11 11 11 11 11 11 11 11 10 10 10 10 10 10 10 10 10 10 10 10
13 13 13 13 13 13 13 13 12 12 12 12 12 11 11 11 11 11 11 11 11 10 10 10 10 10 11 10 10 10 10 10 10 9 9 9 9 9 9 9 9 9 9
12 12 13 13 12 12 12 12 11 11 11 11 11 11 10 10 10 10 10 10 10 10 10 10 10 10 9 9 9 9 9 9 9 9 9 9 8 8 8 8 8 8 8
12 12 12 12 12 12 12 11 11 11 10 10 10 10 9 9 9 9 9 9 9 9 9 9 9 9 8 8 8 8 8 8 8 8 8 8 7 7 7 7 7 7 7
11 11 11 11 11 11 11 11 11 11 10 10 9 9 9 8 8 8 8 8 8 8 8 8 8 7 7 7 7 7 7 7 7 7 7 6 6 6 6 6 6 6 6
10 10 11 11 11 11 11 11 10 10 10 9 8 8 8 8 8 8 7 7 7 7 7 7 6 6 6 6 6 6 6 6 6 6 6 5 5 5 5 6 6 6 6
10 10 10 10 10 10 10 10 10 9 9 8 8 8 7 7 7 7 7 6 6 6 6 6 5 5 5 5 5 5 5 5 5 5 4 4 4 4 4 5 5 5 5
10 10 10 10 10 10 9 9 9 9 8 8 7 7 7 7 6 6 6 5 5 5 5 5 5 4 4 4 4 4 4 4 3 3 3 3 3 3 3 4 4 4 4
10 10 9 9 9 9 8 8 8 8 8 7 7 6 6 6 5 5 5 5 4 4 4 4 4 4 3 3 3 3 3 3 3 3 3 3 3 3 3 3 3 3 3
9 9 9 9 8 8 8 8 7 7 7 6 6 5 5 5 5 4 4 4 4 4 3 3 3 3 3 3 2 2 2 2 2 2 2 2 2 2 2 2 3 3 3
9 9 9 8 8 7 7 7 6 6 6 5 5 5 4 4 4 4 3 3 3 3 3 3 3 2 2 2 2 2 2 2 2 2 2 2 2 2 2 2 2 3 3
8 8 8 8 7 7 6 6 5 5 5 4 4 4 4 4 3 3 3 3 2 2 2 2 2 2 2 2 2 2 1 2 2 2 2 2 2 2 2 2 2 3 3
8 7 7 7 6 6 5 5 5 4 4 4 4 3 3 3 3 2 2 2 2 2 2 2 2 1 1 1 1 1 1 2 2 2 2 2 2 2 2 2 2 2 3
Wind_Speed
10 10 9 9 8 8 7 8 7 7 7 7 7 8 8 7 7 6 6 5 6 6 6 6 5 5 4 4 3 3 3 3 4 3 2 2 4 4 6 9 10 12 16
9 9 8 8 8 8 8 7 7 7 7 7 7 8 8 8 7 7 8 7 7 7 7 6 6 6 6 5 4 4 3 3 3 5 3 2 3 5 6 6 7 11 13
9 9 9 8 8 8 8 7 7 7 7 7 8 8 7 7 7 7 8 7 7 7 7 7 6 6 6 5 5 5 4 5 4 4 5 4 3 5 5 6 7 6 11
8 9 9 9 8 7 6 7 6 7 7 7 7 7 6 6 5 6 7 7 6 6 6 6 6 6 6 6 6 6 6 6 5 5 5 5 4 4 4 5 5 5 7
7 8 8 7 7 7 6 6 6 6 7 6 5 5 5 5 6 6 6 7 6 6 6 6 6 6 6 5 5 4 5 5 5 5 6 5 5 3 4 4 6 5 6
6 6 6 7 6 5 6 6 5 5 5 5 5 5 5 5 4 4 4 5 5 6 6 6 6 5 6 7 8 7 5 6 6 5 6 6 6 4 4 4 4 5 5
6 5 6 6 6 5 6 5 5 5 5 4 4 4 3 1 1 3 4 4 4 4 4 5 6 6 5 5 7 10 9 10 8 6 7 7 6 5 4 5 5 5 6
6 5 5 5 6 5 5 4 4 4 4 4 3 3 2 1 0 1 2 3 3 3 3 3 3 4 4 2 5 6 6 7 8 8 7 8 8 5 5 5 6 7 7
6 5 5 4 5 5 4 4 3 3 3 3 3 3 3 2 3 3 1 1 1 2 2 2 1 1 3 3 4 5 5 5 7 9 10 11 12 11 8 5 6 6 8
6 6 6 5 4 5 4 4 3 3 3 3 3 4 5 5 7 6 3 1 2 2 1 1 3 3 4 4 3 4 5 5 5 6 7 9 10 11 12 9 8 8 8
6 7 6 6 6 5 4 4 4 4 4 5 6 7 6 6 7 7 6 3 3 3 2 2 3 5 4 4 4 3 4 5 6 6 6 6 5 5 5 6 6 7 8
8 7 7 6 6 6 5 5 4 4 5 5 5 6 5 6 7 6 7 6 5 4 4 3 3 4 4 5 4 4 6 6 5 5 5 5 4 4 3 3 4 6 8
9 9 9 9 8 7 7 6 5 4 4 4 4 4 5 5 5 7 6 6 6 4 4 5 5 5 5 4 5 6 5 4 4 5 5 4 4 3 3 3 5 5 6
10 9 9 10 10 10 9 9 8 7 6 6 6 6 6 6 6 6 5 4 4 4 5 6 6 6 5 6 5 4 4 4 4 4 5 4 4 4 4 3 4 4 5
9 8 9 10 10 9 10 9 9 8 7 7 7 6 6 6 5 5 5 5 5 5 6 5 4 3 2 2 2 2 2 2 3 3 4 4 5 5 5 4 4 4 5
9 8 7 7 7 7 8 9 13 11 12 13 11 9 7 6 4 7 8 8 8 7 5 4 4 4 4 5 5 4 4 4 4 4 4 4 5 5 5 6 5 5 6
8 7 5 6 6 6 6 6 6 7 9 10 10 10 8 5 5 7 9 10 9 6 3 4 4 5 5 6 6 6 6 5 4 5 6 6 6 6 6 6 6 6 6
8 8 6 6 5 5 4 4 4 5 5 4 4 4 3 3 4 7 9 8 5 4 4 5 6 6 6 6 7 7 7 7 6 6 6 7 7 7 7 7 6 7 7
7 6 6 5 4 5 4 5 5 5 4 4 4 3 2 3 4 6 7 5 7 7 7 7 7 7 7 7 7 7 7 7 7 7 7 7 7 8 8 8 8 9 8
6 6 4 4 4 5 5 6 6 5 6 6 6 6 5 4 3 4 4 5 6 7 7 7 7 7 7 7 7 7 8 8 8 8 8 8 8 8 9 10 9 9 8
5 5 3 5 6 7 7 7 6 6 6 6 6 6 6 6 6 7 7 7 7 8 7 7 7 7 7 7 7 8 9 9 9 9 9 9 9 9 9 9 9 8 9
5 5 6 7 7 7 6 6 6 6 7 7 5 6 7 7 7 7 7 7 7 7 7 7 7 7 7 8 8 8 8 8 9 9 9 9 9 9 9 9 9 9 9
5 6 6 6 6 6 6 7 8 8 8 8 8 7 7 7 7 7 7 8 7 7 7 7 7 7 7 9 9 7 7 8 9 10 10 10 10 10 9 10 11 11 10
5 6 6 6 6 7 7 7 7 7 7 7 7 7 7 6 7 8 7 7 7 7 7 8 7 9 10 10 10 10 10 11 12 11 11 10 11 10 9 9 10 11 10
6 6 6 6 7 7 7 7 7 7 7 7 6 6 7 7 7 7 7 7 8 8 9 9 9 10 12 13 13 12 14 15 13 12 11 9 10 11 10 10 9 10 9
7 7 7 6 7 6 6 6 6 6 6 6 6 7 7 7 7 7 7 8 8 8 8 9 12 12 13 13 14 15 16 17 17 15 12 9 9 9 10 8 10 9 9
Wind_Direction
171 176 175 176 184 182 186 191 185 180 173 177 186 187 190 190 193 201 220 209 209 222 234 230 224 254 284 292 268 258 260 259 269 275 257 199 167 171 168 212 225 214 214
169 172 174 179 182 182 188 188 183 183 183 187 191 192 198 199 196 200 219 221 216 220 229 233 228 234 235 263 283 278 265 258 257 277 277 263 210 194 188 213 234 235 231
166 170 172 181 187 187 185 183 185 187 190 194 195 197 204 203 201 204 216 226 228 226 225 227 229 234 235 239 248 268 274 264 235 252 264 253 240 217 206 219 238 250 257
165 169 174 180 183 182 182 184 186 190 193 199 195 198 203 208 210 213 217 221 227 231 229 230 231 230 229 237 246 250 265 273 268 259 263 257 244 233 210 217 241 243 252
160 165 169 170 174 177 180 184 183 185 196 196 191 196 203 213 221 219 219 223 220 230 234 232 233 230 226 223 245 247 257 260 264 259 262 265 258 247 233 228 244 252 244
148 153 153 159 166 171 172 176 179 184 191 187 189 190 201 220 226 215 220 238 223 228 240 241 242 231 222 220 235 245 247 253 260 264 265 265 267 263 259 257 255 263 266
144 152 151 156 162 169 180 180 183 185 186 185 189 190 194 233 229 191 207 236 242 237 245 249 253 256 227 225 233 238 244 243 237 253 268 275 284 291 291 285 281 278 272
135 141 147 158 163 164 167 171 175 168 173 179 176 170 159 164 181 206 226 224 256 269 268 265 259 288 303 290 262 248 244 244 239 238 249 260 270 281 278 275 276 276 270
134 135 135 141 151 153 157 154 158 160 163 166 155 143 123 77 70 64 36 253 281 296 310 324 315 297 325 314 281 273 265 262 254 248 243 249 253 258 257 263 266 267 272
122 121 118 110 119 130 131 129 126 126 127 122 121 111 103 85 66 59 32 356 338 328 323 15 47 33 0 351 311 289 279 283 289 286 267 263 257 255 246 237 249 259 268
111 106 104 106 107 98 97 101 106 112 111 105 99 92 86 81 73 56 39 15 352 341 346 29 46 41 19 354 325 299 290 298 294 282 275 269 263 257 251 240 240 245 256
99 96 92 87 88 91 88 86 87 97 112 113 111 106 95 81 70 59 45 30 13 7 7 16 17 355 329 310 299 292 299 300 286 285 280 279 281 279 275 269 264 260 256
88 83 81 76 65 63 70 73 72 71 76 86 94 94 86 77 64 49 32 19 13 5 4 358 327 299 294 282 266 278 290 282 286 289 290 294 294 291 290 283 277 270 269
80 81 81 78 70 60 55 55 53 44 45 51 56 62 69 57 37 19 11 9 360 355 344 320 291 273 275 290 288 262 249 262 279 292 304 306 308 308 298 293 296 297 291
76 74 80 81 79 74 67 59 63 54 57 59 52 55 55 51 25 8 7 2 354 348 330 310 299 302 291 286 295 304 302 308 306 311 316 319 322 321 311 303 293 293 290
74 68 75 82 86 92 94 81 60 70 69 68 67 72 73 66 35 15 4 349 333 335 329 314 333 352 352 348 344 343 350 354 347 337 328 322 317 313 311 310 305 299 296
72 70 70 77 80 86 93 102 102 80 67 67 70 72 75 59 25 4 353 341 328 334 334 343 358 4 359 356 355 353 349 349 350 339 331 325 322 318 312 309 309 307 303
60 62 56 63 64 68 76 82 92 106 109 94 82 82 66 22 347 342 345 345 351 11 7 7 7 3 359 358 356 351 344 341 341 337 333 332 330 324 320 317 315 312 309
59 55 47 48 55 61 59 61 63 61 71 89 94 63 348 315 308 329 349 358 5 15 15 11 7 3 0 358 354 346 341 337 338 334 332 331 332 327 323 322 317 317 314
74 65 44 49 56 54 52 53 53 50 50 56 54 42 11 352 7 20 25 15 14 16 12 6 1 356 357 358 353 349 345 340 341 343 343 341 337 330 325 324 322 321 318
70 76 54 49 53 49 46 47 45 41 44 54 56 49 13 7 21 21 22 21 17 10 6 359 353 353 358 356 351 347 345 344 346 345 341 335 332 328 324 321 320 317 313
47 57 58 56 54 49 41 40 42 42 40 47 47 43 23 15 20 21 19 19 18 11 7 2 357 359 1 355 348 345 346 348 346 341 333 327 323 320 319 317 316 315 312
48 55 62 62 61 55 41 42 41 41 41 40 36 32 28 23 22 23 19 17 12 6 3 358 350 353 357 350 347 356 -0 354 343 334 328 321 318 315 313 311 309 308 306
41 50 58 58 53 48 48 47 45 41 42 39 34 29 26 24 22 22 19 14 4 0 356 352 350 354 359 0 2 8 3 349 337 327 321 313 308 304 304 303 303 305 307
41 46 52 54 54 54 49 45 43 37 35 33 29 25 23 22 24 22 17 9 358 354 351 353 358 0 4 12 9 1 351 345 337 327 315 304 299 299 300 301 304 305 307
40 42 50 57 59 57 53 49 46 41 35 32 30 28 24 24 24 20 13 6 355 353 356 359 3 12 15 11 2 355 349 342 335 328 315 299 295 297 303 304 309 311 310
Height
1489 1493 1498 1501 1505 1509 1513 1517 1520 1523 1526 1529 1531 1533 1535 1537 1539 1541 1542 1544 1545 1547 1548 1549 1550 1551 1552 1553 1554 1555 1555 1556 1556 1556 1557 1557 1557 1558 1557 1557 1557 1557 1557
1488 1492 1496 1500 1503 1507 1510 1514 1518 1521 1524 1526 1528 1531 1533 1535 1537 1538 1540 1541 1542 1544 1545 1546 1547 1548 1549 1550 1551 1551 1552 1553 1553 1553 1553 1554 1554 1554 1554 1554 1554 1553 1553
1488 1492 1495 1498 1502 1505 1509 1512 1515 1518 1521 1524 1526 1528 1530 1532 1534 1535 1537 1538 1540 1541 1542 1543 1544 1545 1545 1546 1547 1548 1548 1549 1549 1549 1549 1550 1550 1550 1550 1549 1549 1549 1550
1488 1491 1494 1497 1500 1503 1506 1509 1512 1515 1518 1521 1523 1525 1527 1529 1531 1533 1534 1535 1536 1538 1539 1540 1540 1541 1542 1542 1543 1544 1545 1545 1545 1545 1545 1546 1546 1546 1546 1545 1545 1545 1545
1488 1490 1493 1496 1499 1502 1504 1506 1510 1513 1516 1518 1520 1522 1524 1526 1528 1529 1531 1532 1533 1534 1535 1536 1537 1537 1538 1539 1539 1540 1540 1540 1541 1541 1541 1541 1541 1541 1541 1541 1540 1540 1540
1487 1489 1492 1495 1497 1500 1502 1505 1508 1511 1513 1515 1517 1519 1521 1523 1524 1526 1528 1529 1530 1531 1531 1532 1533 1533 1534 1534 1535 1535 1536 1536 1536 1536 1536 1536 1536 1537 1536 1536 1536 1535 1534
1486 1489 1492 1494 1496 1499 1501 1504 1507 1509 1511 1513 1515 1517 1518 1520 1521 1523 1524 1525 1526 1527 1528 1528 1529 1529 1529 1530 1530 1530 1530 1531 1531 1531 1530 1530 1531 1531 1531 1530 1530 1529 1528
1486 1489 1491 1494 1496 1498 1501 1503 1505 1507 1509 1510 1512 1514 1515 1517 1518 1519 1521 1521 1522 1523 1524 1524 1524 1525 1525 1525 1524 1524 1524 1524 1525 1525 1524 1524 1525 1525 1525 1524 1524 1523 1522
1486 1488 1491 1493 1495 1497 1499 1501 1503 1505 1507 1508 1509 1511 1512 1513 1514 1516 1517 1518 1518 1519 1520 1520 1520 1520 1520 1520 1520 1519 1519 1519 1519 1518 1518 1518 1518 1518 1518 1518 1517 1516 1514
1486 1489 1491 1493 1495 1495 1498 1500 1502 1504 1505 1506 1507 1508 1509 1510 1511 1513 1514 1515 1515 1515 1516 1516 1516 1516 1515 1515 1515 1514 1513 1513 1513 1512 1512 1512 1511 1511 1511 1511 1510 1509 1508
1487 1489 1491 1493 1494 1495 1498 1500 1501 1503 1504 1505 1506 1507 1508 1509 1510 1511 1512 1512 1513 1513 1513 1513 1512 1512 1511 1511 1510 1510 1509 1508 1507 1507 1506 1506 1505 1505 1504 1504 1503 1503 1502
1488 1490 1491 1493 1496 1497 1499 1500 1501 1503 1504 1506 1507 1507 1508 1509 1509 1510 1510 1511 1511 1511 1510 1510 1510 1509 1508 1508 1507 1506 1505 1504 1503 1502 1501 1500 1500 1499 1498 1498 1497 1496 1495
1489 1491 1493 1495 1497 1498 1500 1501 1502 1504 1505 1506 1507 1508 1508 1508 1508 1509 1509 1509 1509 1509 1508 1508 1507 1506 1505 1504 1503 1502 1501 1500 1499 1498 1497 1496 1496 1494 1493 1492 1491 1490 1489
1490 1493 1495 1496 1498 1499 1501 1502 1503 1504 1505 1506 1507 1507 1508 1508 1508 1508 1507 1507 1507 1506 1506 1505 1504 1504 1503 1502 1501 1499 1498 1497 1496 1495 1494 1493 1491 1490 1489 1487 1486 1485 1483
1493 1495 1497 1498 1499 1501 1502 1504 1505 1505 1506 1507 1507 1508 1508 1507 1507 1507 1506 1505 1505 1504 1503 1503 1502 1502 1501 1500 1498 1497 1496 1495 1493 1492 1491 1489 1488 1486 1485 1483 1482 1480 1478
1495 1497 1499 1501 1502 1503 1504 1505 1506 1507 1508 1508 1509 1509 1508 1508 1507 1506 1506 1505 1504 1503 1502 1502 1501 1500 1499 1498 1497 1496 1494 1493 1491 1490 1488 1487 1485 1483 1481 1479 1478 1476 1474
1499 1501 1502 1503 1504 1505 1506 1507 1507 1508 1509 1509 1509 1509 1508 1508 1507 1506 1505 1504 1504 1503 1502 1501 1500 1499 1498 1497 1496 1494 1493 1491 1489 1487 1486 1484 1482 1480 1477 1475 1474 1472 1470
1503 1504 1505 1506 1507 1508 1509 1509 1510 1509 1509 1509 1509 1509 1509 1508 1507 1506 1505 1504 1503 1502 1502 1501 1499 1498 1497 1495 1494 1492 1490 1488 1486 1485 1483 1481 1478 1476 1474 1472 1470 1468 1465
1506 1507 1507 1508 1510 1510 1510 1511 1511 1511 1511 1511 1510 1509 1509 1508 1507 1506 1505 1504 1503 1502 1501 1500 1498 1497 1495 1494 1492 1490 1488 1486 1484 1482 1480 1478 1475 1473 1470 1468 1466 1463 1461
1508 1509 1510 1511 1512 1512 1512 1513 1513 1513 1512 1512 1511 1510 1509 1509 1508 1507 1506 1505 1504 1502 1501 1499 1498 1496 1494 1492 1490 1488 1486 1484 1481 1479 1476 1474 1471 1469 1466 1464 1462 1459 1457
1512 1512 1512 1513 1513 1513 1514 1514 1514 1514 1514 1513 1512 1511 1510 1509 1509 1508 1506 1505 1503 1502 1500 1498 1496 1495 1492 1490 1488 1485 1483 1481 1478 1475 1473 1470 1467 1465 1463 1460 1457 1455 1452
1514 1515 1515 1515 1515 1515 1515 1516 1515 1515 1514 1514 1513 1512 1510 1510 1509 1508 1506 1505 1503 1501 1499 1497 1495 1493 1490 1488 1485 1483 1480 1478 1475 1471 1469 1466 1464 1461 1459 1456 1453 1451 1448
1516 1516 1516 1516 1517 1517 1517 1517 1516 1516 1515 1514 1513 1512 1511 1510 1509 1507 1505 1504 1502 1500 1498 1496 1493 1491 1489 1486 1484 1481 1477 1474 1471 1468 1465 1462 1459 1457 1455 1452 1450 1447 1444
1518 1518 1518 1518 1518 1518 1518 1517 1517 1516 1516 1515 1514 1513 1511 1510 1508 1507 1505 1503 1501 1499 1497 1494 1492 1490 1487 1484 1481 1478 1475 1472 1468 1465 1462 1459 1456 1453 1451 1449 1446 1444 1441
1519 1519 1519 1519 1519 1518 1518 1518 1517 1517 1516 1515 1514 1513 1512 1510 1508 1507 1505 1502 1500 1498 1496 1494 1491 1488 1485 1482 1478 1475 1472 1468 1465 1461 1458 1456 1453 1450 1448 1446 1443 1441 1438
1520 1520 1520 1519 1519 1519 1519 1518 1518 1517 1516 1515 1514 1513 1512 1510 1508 1506 1504 1502 1500 1498 1495 1493 1490 1486 1482 1479 1476 1472 1468 1465 1461 1458 1456 1453 1450 1448 1446 1443 1441 1438 1435